Terminal Aerodrome Forecast
Issued by NWS

Home | Current Version | Previous Version | Text Only | Print | Product List | Glossary On
Versions: 1 2 3 4 5 6 7 8 9 10 11 12 13 14 15 16 17 18 19 20 21
622
FTUS41 KGYX 080524
TAFAUG
TAF
KAUG 080524Z 0806/0906 03010G18KT P6SM SCT035 BKN120
     FM081600 01018G25KT 3SM -SN OVC030
     FM082000 36021G28KT 1 1/2SM -SN BR OVC007=

USA.gov is the U.S. government's official web portal to all federal, state and local government web resources and services.